| time (UTC) | temp F | wind direction | speed MPH | gust MPH | rain 1hr in | rain 24hr in | rain mn in | humidity % | barometer mb |
| 20260503204957 | 69 | 302 | 4.0 | 7.0 | 0.00 | 0.00 | 0.00 | 51 | 1013.5 |
| 20260503204708 | 0 | 0.0 | 0.0 | 0.00 | 0.00 | 0.00 | |||
| 20260503204457 | 69 | 298 | 5.0 | 7.0 | 0.00 | 0.00 | 0.00 | 51 | 1013.5 |
| 20260503204208 | 0 | 0.0 | 0.0 | 0.00 | 0.00 | 0.00 | |||
| 20260503203957 | 69 | 304 | 6.0 | 9.0 | 0.00 | 0.00 | 0.00 | 52 | 1013.6 |
| 20260503203707 | 0 | 0.0 | 0.0 | 0.00 | 0.00 | 0.00 | |||
| 20260503203459 | 68 | 311 | 2.0 | 5.0 | 0.00 | 0.00 | 0.00 | 52 | 1013.7 |
| 20260503203208 | 0 | 0.0 | 0.0 | 0.00 | 0.00 | 0.00 | |||
| 20260503202957 | 68 | 299 | 5.0 | 8.0 | 0.00 | 0.00 | 0.00 | 54 | 1013.8 |
| 20260503202708 | 0 | 0.0 | 0.0 | 0.00 | 0.00 | 0.00 | |||
| 20260503202457 | 67 | 278 | 4.0 | 8.0 | 0.00 | 0.00 | 0.00 | 56 | 1014.0 |
| 20260503202208 | 0 | 0.0 | 0.0 | 0.00 | 0.00 | 0.00 | |||
| 20260503201957 | 66 | 298 | 4.0 | 7.0 | 0.00 | 0.00 | 0.00 | 56 | 1014.0 |
| 20260503201708 | 0 | 0.0 | 0.0 | 0.00 | 0.00 | 0.00 | |||
| 20260503201458 | 66 | 310 | 6.0 | 9.0 | 0.00 | 0.00 | 0.00 | 57 | 1014.0 |
| 20260503201208 | 0 | 0.0 | 0.0 | 0.00 | 0.00 | 0.00 | |||
| 20260503200957 | 66 | 312 | 6.0 | 9.0 | 0.00 | 0.00 | 0.00 | 57 | 1014.2 |
| 20260503200708 | 0 | 0.0 | 0.0 | 0.00 | 0.00 | 0.00 | |||
| 20260503200457 | 66 | 303 | 6.0 | 9.0 | 0.00 | 0.00 | 0.00 | 56 | 1014.1 |
| 20260503195957 | 66 | 313 | 4.0 | 7.0 | 0.00 | 0.00 | 0.00 | 56 | 1014.2 |
| 20260503195706 | 0 | 0.0 | 0.0 | 0.00 | 0.00 | 0.00 | |||
| 20260503195458 | 65 | 316 | 4.0 | 7.0 | 0.00 | 0.00 | 0.00 | 57 | 1014.3 |
| 20260503195203 | 0 | 0.0 | 0.0 | 0.00 | 0.00 | 0.00 | |||
| 20260503194957 | 65 | 308 | 6.0 | 9.0 | 0.00 | 0.00 | 0.00 | 56 | 1014.3 |
| 20260503194458 | 65 | 314 | 6.0 | 10.0 | 0.00 | 0.00 | 0.00 | 58 | 1014.2 |
| 20260503193957 | 64 | 314 | 8.0 | 11.0 | 0.00 | 0.00 | 0.00 | 58 | 1014.2 |
| 20260503193707 | 0 | 0.0 | 0.0 | 0.00 | 0.00 | 0.00 | |||
| 20260503193458 | 65 | 323 | 6.0 | 10.0 | 0.00 | 0.00 | 0.00 | 59 | 1014.2 |
| 20260503193203 | 0 | 0.0 | 0.0 | 0.00 | 0.00 | 0.00 | |||
| 20260503192957 | 64 | 318 | 6.0 | 10.0 | 0.00 | 0.00 | 0.00 | 60 | 1014.3 |
| 20260503192703 | 0 | 0.0 | 0.0 | 0.00 | 0.00 | 0.00 | |||
| 20260503192457 | 64 | 316 | 6.0 | 9.0 | 0.00 | 0.00 | 0.00 | 61 | 1014.3 |
| 20260503192203 | 0 | 0.0 | 0.0 | 0.00 | 0.00 | 0.00 | |||
| 20260503191957 | 64 | 311 | 5.0 | 7.0 | 0.00 | 0.00 | 0.00 | 61 | 1014.3 |
| 20260503191701 | 0 | 0.0 | 0.0 | 0.00 | 0.00 | 0.00 | |||
| 20260503191457 | 64 | 314 | 6.0 | 9.0 | 0.00 | 0.00 | 0.00 | 61 | 1014.3 |
| 20260503191201 | 0 | 0.0 | 0.0 | 0.00 | 0.00 | 0.00 | |||
| 20260503190957 | 64 | 317 | 5.0 | 9.0 | 0.00 | 0.00 | 0.00 | 61 | 1014.4 |
| 20260503190702 | 0 | 0.0 | 0.0 | 0.00 | 0.00 | 0.00 | |||
| 20260503190457 | 64 | 314 | 4.0 | 7.0 | 0.00 | 0.00 | 0.00 | 62 | 1014.5 |
| 20260503190200 | 0 | 0.0 | 0.0 | 0.00 | 0.00 | 0.00 | |||
| 20260503185957 | 64 | 313 | 5.0 | 8.0 | 0.00 | 0.00 | 0.00 | 61 | 1014.5 |
| 20260503185701 | 0 | 0.0 | 0.0 | 0.00 | 0.00 | 0.00 | |||
| 20260503185457 | 64 | 306 | 6.0 | 10.0 | 0.00 | 0.00 | 0.00 | 62 | 1014.5 |
| 20260503185200 | 0 | 0.0 | 0.0 | 0.00 | 0.00 | 0.00 | |||
| 20260503184957 | 64 | 315 | 6.0 | 9.0 | 0.00 | 0.00 | 0.00 | 61 | 1014.5 |
| 20260503184657 | 0 | 0.0 | 0.0 | 0.00 | 0.00 | 0.00 | |||
| 20260503184457 | 63 | 307 | 4.0 | 8.0 | 0.00 | 0.00 | 0.00 | 62 | 1014.5 |
| 20260503184158 | 0 | 0.0 | 0.0 | 0.00 | 0.00 | 0.00 | |||
| 20260503183957 | 62 | 316 | 6.0 | 9.0 | 0.00 | 0.00 | 0.00 | 65 | 1014.6 |
| 20260503183657 | 0 | 0.0 | 0.0 | 0.00 | 0.00 | 0.00 | |||
| 20260503183458 | 62 | 306 | 7.0 | 9.0 | 0.00 | 0.00 | 0.00 | 67 | 1014.6 |
| 20260503183158 | 0 | 0.0 | 0.0 | 0.00 | 0.00 | 0.00 | |||
| 20260503182957 | 62 | 307 | 6.0 | 11.0 | 0.00 | 0.00 | 0.00 | 67 | 1014.8 |
| 20260503182658 | 0 | 0.0 | 0.0 | 0.00 | 0.00 | 0.00 | |||
| 20260503182457 | 62 | 320 | 6.0 | 8.0 | 0.00 | 0.00 | 0.00 | 66 | 1014.8 |
| 20260503182158 | 0 | 0.0 | 0.0 | 0.00 | 0.00 | 0.00 | |||
| 20260503181957 | 62 | 320 | 4.0 | 6.0 | 0.00 | 0.00 | 0.00 | 68 | 1014.9 |
| 20260503181658 | 0 | 0.0 | 0.0 | 0.00 | 0.00 | 0.00 | |||
| 20260503181457 | 61 | 304 | 5.0 | 7.0 | 0.00 | 0.00 | 0.00 | 68 | 1014.9 |
| 20260503181159 | 0 | 0.0 | 0.0 | 0.00 | 0.00 | 0.00 | |||
| 20260503180957 | 61 | 295 | 5.0 | 8.0 | 0.00 | 0.00 | 0.00 | 69 | 1014.9 |
| 20260503180659 | 0 | 0.0 | 0.0 | 0.00 | 0.00 | 0.00 | |||
| 20260503180457 | 61 | 294 | 6.0 | 10.0 | 0.00 | 0.00 | 0.00 | 69 | 1014.9 |
| 20260503180158 | 0 | 0.0 | 0.0 | 0.00 | 0.00 | 0.00 | |||
| 20260503175957 | 61 | 304 | 6.0 | 8.0 | 0.00 | 0.00 | 0.00 | 69 | 1014.9 |
| 20260503175655 | 0 | 0.0 | 0.0 | 0.00 | 0.00 | 0.00 | |||
| 20260503175458 | 61 | 309 | 5.0 | 8.0 | 0.00 | 0.00 | 0.00 | 70 | 1014.9 |
| 20260503175156 | 0 | 0.0 | 0.0 | 0.00 | 0.00 | 0.00 | |||
| 20260503174957 | 60 | 315 | 4.0 | 6.0 | 0.00 | 0.00 | 0.00 | 70 | 1015.0 |
| 20260503174655 | 0 | 0.0 | 0.0 | 0.00 | 0.00 | 0.00 | |||
| 20260503174457 | 60 | 325 | 5.0 | 8.0 | 0.00 | 0.00 | 0.00 | 71 | 1015.0 |
| 20260503174156 | 0 | 0.0 | 0.0 | 0.00 | 0.00 | 0.00 | |||
| 20260503173958 | 60 | 309 | 5.0 | 11.0 | 0.00 | 0.00 | 0.00 | 70 | 1015.0 |
| 20260503173657 | 0 | 0.0 | 0.0 | 0.00 | 0.00 | 0.00 | |||
| 20260503173457 | 60 | 301 | 4.0 | 8.0 | 0.00 | 0.00 | 0.00 | 70 | 1015.0 |
| 20260503173158 | 0 | 0.0 | 0.0 | 0.00 | 0.00 | 0.00 | |||
| 20260503172957 | 60 | 314 | 6.0 | 9.0 | 0.00 | 0.00 | 0.00 | 72 | 1015.1 |
| 20260503172655 | 0 | 0.0 | 0.0 | 0.00 | 0.00 | 0.00 | |||
| 20260503172459 | 60 | 310 | 6.0 | 9.0 | 0.00 | 0.00 | 0.00 | 72 | 1015.1 |
| 20260503172156 | 0 | 0.0 | 0.0 | 0.00 | 0.00 | 0.00 | |||
| 20260503171957 | 59 | 309 | 4.0 | 6.0 | 0.00 | 0.00 | 0.00 | 72 | 1015.2 |
| 20260503171656 | 0 | 0.0 | 0.0 | 0.00 | 0.00 | 0.00 | |||
| 20260503171457 | 59 | 312 | 4.0 | 5.0 | 0.00 | 0.00 | 0.00 | 72 | 1015.2 |
| 20260503171156 | 0 | 0.0 | 0.0 | 0.00 | 0.00 | 0.00 | |||
| 20260503170957 | 59 | 297 | 6.0 | 9.0 | 0.00 | 0.00 | 0.00 | 71 | 1015.1 |
| 20260503170656 | 0 | 0.0 | 0.0 | 0.00 | 0.00 | 0.00 | |||
| 20260503170457 | 60 | 306 | 4.0 | 6.0 | 0.00 | 0.00 | 0.00 | 69 | 1015.1 |
| 20260503170156 | 0 | 0.0 | 0.0 | 0.00 | 0.00 | 0.00 | |||
| 20260503160148 | 0 | 0.0 | 0.0 | 0.00 | 0.00 | 0.00 | |||
| 20260503150957 | 56 | 310 | 4.0 | 5.0 | 0.00 | 0.00 | 0.00 | 75 | 1015.4 |
| 20260503150650 | 0 | 0.0 | 0.0 | 0.00 | 0.00 | 0.00 | |||
| 20260503150457 | 56 | 321 | 4.0 | 8.0 | 0.00 | 0.00 | 0.00 | 76 | 1015.4 |
| 20260503150155 | 0 | 0.0 | 0.0 | 0.00 | 0.00 | 0.00 | |||
| 20260503130957 | 55 | 319 | 7.0 | 9.0 | 0.00 | 0.00 | 0.00 | 77 | 1014.8 |
| 20260503130640 | 0 | 0.0 | 0.0 | 0.00 | 0.00 | 0.00 | |||
| 20260503130457 | 55 | 324 | 7.0 | 9.0 | 0.00 | 0.00 | 0.00 | 78 | 1014.9 |
| 20260503130142 | 0 | 0.0 | 0.0 | 0.00 | 0.00 | 0.00 | |||
| 20260503120131 | 0 | 0.0 | 0.0 | 0.00 | 0.00 | 0.00 | |||
| 20260503110629 | 0 | 0.0 | 0.0 | 0.00 | 0.00 | 0.00 | |||
| 20260503110457 | 59 | 317 | 5.0 | 8.0 | 0.00 | 0.00 | 0.00 | 70 | 1015.1 |
| 20260503100125 | 0 | 0.0 | 0.0 | 0.00 | 0.00 | 0.00 | |||
| 20260503090457 | 62 | 329 | 9.0 | 18.0 | 0.00 | 0.00 | 0.00 | 64 | 1015.1 |
| 20260503090123 | 0 | 0.0 | 0.0 | 0.00 | 0.00 | 0.00 | |||
| 20260503081458 | 63 | 332 | 6.0 | 10.0 | 0.00 | 0.00 | 0.00 | 59 | 1015.2 |
| 20260503081121 | 0 | 0.0 | 0.0 | 0.00 | 0.00 | 0.00 | |||
| 20260503080957 | 64 | 321 | 6.0 | 11.0 | 0.00 | 0.00 | 0.00 | 58 | 1015.3 |
| 20260503080457 | 64 | 326 | 7.0 | 9.0 | 0.00 | 0.00 | 0.00 | 57 | 1015.2 |
| 20260503080121 | 0 | 0.0 | 0.0 | 0.00 | 0.00 | 0.00 | |||
| 20260503072457 | 67 | 313 | 4.0 | 10.0 | 0.00 | 0.00 | 0.00 | 49 | 1015.2 |
| 20260503071958 | 67 | 311 | 5.0 | 8.0 | 0.00 | 0.00 | 0.00 | 48 | 1015.2 |
| 20260503071619 | 0 | 0.0 | 0.0 | 0.00 | 0.00 | 0.00 | |||
| 20260503071457 | 67 | 320 | 6.0 | 9.0 | 0.00 | 0.00 | 0.00 | 48 | 1015.3 |
| 20260503071118 | 0 | 0.0 | 0.0 | 0.00 | 0.00 | 0.00 | |||
| 20260503070957 | 67 | 324 | 4.0 | 8.0 | 0.00 | 0.00 | 0.00 | 47 | 1015.3 |
| 20260503070618 | 0 | 0.0 | 0.0 | 0.00 | 0.00 | 0.00 | |||
| 20260503070457 | 67 | 325 | 6.0 | 8.0 | 0.00 | 0.00 | 0.00 | 47 | 1015.3 |
| 20260503060117 | 0 | 0.0 | 0.0 | 0.00 | 0.00 | 0.00 | |||
| 20260503055117 | 0 | 0.0 | 0.0 | 0.00 | 0.00 | 0.00 | |||
| 20260503054957 | 68 | 308 | 3.0 | 7.0 | 0.00 | 0.00 | 0.02 | 45 | 1014.9 |
| 20260503054616 | 0 | 0.0 | 0.0 | 0.00 | 0.00 | 0.00 | |||
| 20260503054457 | 68 | 340 | 5.0 | 9.0 | 0.00 | 0.00 | 0.02 | 44 | 1014.8 |
| 20260503053957 | 68 | 319 | 3.0 | 5.0 | 0.00 | 0.00 | 0.02 | 44 | 1015.0 |
| 20260503053617 | 0 | 0.0 | 0.0 | 0.00 | 0.00 | 0.00 | |||
| 20260503053457 | 68 | 338 | 5.0 | 8.0 | 0.00 | 0.00 | 0.02 | 44 | 1015.0 |
| 20260503053115 | 0 | 0.0 | 0.0 | 0.00 | 0.00 | 0.00 | |||
| 20260503052957 | 68 | 332 | 5.0 | 9.0 | 0.00 | 0.00 | 0.02 | 44 | 1015.1 |
| 20260503052615 | 0 | 0.0 | 0.0 | 0.00 | 0.00 | 0.00 | |||
| 20260503052457 | 68 | 315 | 5.0 | 8.0 | 0.00 | 0.00 | 0.02 | 44 | 1015.1 |
| 20260503052114 | 0 | 0.0 | 0.0 | 0.00 | 0.00 | 0.00 | |||
| 20260503051958 | 68 | 347 | 4.0 | 8.0 | 0.00 | 0.00 | 0.02 | 44 | 1015.1 |
| 20260503051615 | 0 | 0.0 | 0.0 | 0.00 | 0.00 | 0.00 | |||
| 20260503051457 | 68 | 301 | 4.0 | 9.0 | 0.00 | 0.00 | 0.02 | 44 | 1015.1 |
| 20260503050957 | 68 | 327 | 4.0 | 8.0 | 0.00 | 0.00 | 0.02 | 43 | 1015.2 |
| 20260503050616 | 0 | 0.0 | 0.0 | 0.00 | 0.00 | 0.00 | |||
| 20260503050459 | 68 | 342 | 5.0 | 8.0 | 0.00 | 0.00 | 0.02 | 43 | 1015.2 |
| 20260503050116 | 0 | 0.0 | 0.0 | 0.00 | 0.00 | 0.00 | |||
| 20260503045957 | 68 | 332 | 5.0 | 8.0 | 0.00 | 0.00 | 0.02 | 43 | 1015.2 |
| 20260503045615 | 0 | 0.0 | 0.0 | 0.00 | 0.00 | 0.00 | |||
| 20260503045457 | 68 | 356 | 5.0 | 8.0 | 0.00 | 0.00 | 0.02 | 43 | 1015.1 |
| 20260503045115 | 0 | 0.0 | 0.0 | 0.00 | 0.00 | 0.00 | |||
| 20260503044957 | 68 | 324 | 3.0 | 6.0 | 0.00 | 0.00 | 0.02 | 43 | 1015.1 |
| 20260503044615 | 0 | 0.0 | 0.0 | 0.00 | 0.00 | 0.00 | |||
| 20260503044457 | 68 | 321 | 4.0 | 9.0 | 0.00 | 0.00 | 0.02 | 43 | 1015.0 |
| 20260503044115 | 0 | 0.0 | 0.0 | 0.00 | 0.00 | 0.00 | |||
| 20260503043957 | 68 | 344 | 4.0 | 9.0 | 0.00 | 0.00 | 0.02 | 44 | 1015.0 |
| 20260503043612 | 0 | 0.0 | 0.0 | 0.00 | 0.00 | 0.00 | |||
| 20260503043457 | 68 | 325 | 4.0 | 8.0 | 0.00 | 0.00 | 0.02 | 44 | 1015.0 |
| 20260503043109 | 0 | 0.0 | 0.0 | 0.00 | 0.00 | 0.00 | |||
| 20260503042957 | 68 | 327 | 6.0 | 8.0 | 0.00 | 0.00 | 0.02 | 44 | 1015.0 |
| 20260503042457 | 68 | 332 | 4.0 | 9.0 | 0.00 | 0.00 | 0.02 | 44 | 1014.9 |
| 20260503042109 | 0 | 0.0 | 0.0 | 0.00 | 0.00 | 0.00 | |||
| 20260503041957 | 68 | 326 | 4.0 | 8.0 | 0.00 | 0.00 | 0.02 | 44 | 1014.9 |
| 20260503041610 | 0 | 0.0 | 0.0 | 0.00 | 0.00 | 0.00 | |||
| 20260503041457 | 68 | 328 | 6.0 | 11.0 | 0.00 | 0.00 | 0.02 | 45 | 1014.8 |
| 20260503041109 | 0 | 0.0 | 0.0 | 0.00 | 0.00 | 0.00 | |||
| 20260503040957 | 68 | 337 | 5.0 | 10.0 | 0.00 | 0.00 | 0.02 | 44 | 1014.9 |
| 20260503040609 | 0 | 0.0 | 0.0 | 0.00 | 0.00 | 0.00 | |||
| 20260503040457 | 68 | 325 | 7.0 | 10.0 | 0.00 | 0.00 | 0.02 | 44 | 1014.8 |
| 20260503040110 | 0 | 0.0 | 0.0 | 0.00 | 0.00 | 0.00 | |||
| 20260503035957 | 68 | 351 | 4.0 | 9.0 | 0.00 | 0.00 | 0.02 | 45 | 1014.8 |
| 20260503035610 | 0 | 0.0 | 0.0 | 0.00 | 0.00 | 0.00 | |||
| 20260503035458 | 68 | 321 | 4.0 | 6.0 | 0.00 | 0.00 | 0.02 | 44 | 1014.8 |
| 20260503035110 | 0 | 0.0 | 0.0 | 0.00 | 0.00 | 0.00 | |||
| 20260503034957 | 68 | 349 | 3.0 | 6.0 | 0.00 | 0.00 | 0.02 | 44 | 1014.7 |
| 20260503034611 | 0 | 0.0 | 0.0 | 0.00 | 0.00 | 0.00 | |||
| 20260503034457 | 68 | 336 | 5.0 | 8.0 | 0.00 | 0.00 | 0.02 | 45 | 1014.6 |
| 20260503034108 | 0 | 0.0 | 0.0 | 0.00 | 0.00 | 0.00 | |||
| 20260503033957 | 68 | 345 | 5.0 | 12.0 | 0.00 | 0.00 | 0.02 | 44 | 1014.5 |
| 20260503033457 | 68 | 338 | 4.0 | 7.0 | 0.00 | 0.00 | 0.02 | 44 | 1014.4 |
| 20260503033108 | 0 | 0.0 | 0.0 | 0.00 | 0.00 | 0.00 | |||
| 20260503032958 | 69 | 319 | 6.0 | 11.0 | 0.00 | 0.00 | 0.02 | 44 | 1014.5 |
| 20260503032607 | 0 | 0.0 | 0.0 | 0.00 | 0.00 | 0.00 | |||
| 20260503032457 | 68 | 328 | 6.0 | 11.0 | 0.00 | 0.00 | 0.02 | 44 | 1014.4 |
| 20260503031957 | 69 | 335 | 4.0 | 6.0 | 0.00 | 0.00 | 0.02 | 44 | 1014.4 |
| 20260503031607 | 0 | 0.0 | 0.0 | 0.00 | 0.00 | 0.00 | |||
| 20260503031457 | 69 | 353 | 4.0 | 9.0 | 0.00 | 0.00 | 0.02 | 44 | 1014.4 |
| 20260503031108 | 0 | 0.0 | 0.0 | 0.00 | 0.00 | 0.00 | |||
| 20260503030957 | 69 | 330 | 5.0 | 8.0 | 0.00 | 0.00 | 0.02 | 45 | 1014.3 |
| 20260503030608 | 0 | 0.0 | 0.0 | 0.00 | 0.00 | 0.00 | |||
| 20260503030457 | 69 | 346 | 4.0 | 8.0 | 0.00 | 0.00 | 0.02 | 45 | 1014.4 |
| 20260503030109 | 0 | 0.0 | 0.0 | 0.00 | 0.00 | 0.00 | |||
| 20260503025957 | 69 | 330 | 4.0 | 9.0 | 0.00 | 0.00 | 0.02 | 46 | 1014.3 |
| 20260503025608 | 0 | 0.0 | 0.0 | 0.00 | 0.00 | 0.00 | |||
| 20260503025458 | 69 | 343 | 6.0 | 11.0 | 0.00 | 0.00 | 0.02 | 45 | 1014.2 |
| 20260503025107 | 0 | 0.0 | 0.0 | 0.00 | 0.00 | 0.00 | |||
| 20260503024957 | 69 | 337 | 5.0 | 9.0 | 0.00 | 0.00 | 0.02 | 46 | 1014.4 |
| 20260503024608 | 0 | 0.0 | 0.0 | 0.00 | 0.00 | 0.00 | |||
| 20260503024457 | 69 | 330 | 4.0 | 9.0 | 0.00 | 0.00 | 0.02 | 46 | 1014.3 |
| 20260503024108 | 0 | 0.0 | 0.0 | 0.00 | 0.00 | 0.00 | |||
| 20260503023957 | 69 | 326 | 3.0 | 7.0 | 0.00 | 0.00 | 0.02 | 46 | 1014.2 |
| 20260503023605 | 0 | 0.0 | 0.0 | 0.00 | 0.00 | 0.00 | |||
| 20260503023457 | 69 | 340 | 7.0 | 13.0 | 0.00 | 0.00 | 0.02 | 46 | 1014.2 |
| 20260503023105 | 0 | 0.0 | 0.0 | 0.00 | 0.00 | 0.00 | |||
| 20260503022958 | 69 | 348 | 5.0 | 12.0 | 0.00 | 0.00 | 0.02 | 46 | 1014.3 |
| 20260503022605 | 0 | 0.0 | 0.0 | 0.00 | 0.00 | 0.00 | |||
| 20260503022458 | 69 | 330 | 6.0 | 9.0 | 0.00 | 0.00 | 0.02 | 46 | 1014.3 |
| 20260503022106 | 0 | 0.0 | 0.0 | 0.00 | 0.00 | 0.00 | |||
| 20260503021957 | 69 | 328 | 7.0 | 12.0 | 0.00 | 0.00 | 0.02 | 45 | 1014.4 |
| 20260503021605 | 0 | 0.0 | 0.0 | 0.00 | 0.00 | 0.00 | |||
| 20260503021458 | 69 | 342 | 5.0 | 9.0 | 0.00 | 0.00 | 0.02 | 46 | 1014.4 |
| 20260503021106 | 0 | 0.0 | 0.0 | 0.00 | 0.00 | 0.00 | |||
| 20260503020957 | 69 | 334 | 6.0 | 13.0 | 0.00 | 0.00 | 0.02 | 46 | 1014.4 |
| 20260503020606 | 0 | 0.0 | 0.0 | 0.00 | 0.00 | 0.00 | |||
| 20260503020457 | 69 | 2 | 5.0 | 9.0 | 0.00 | 0.00 | 0.02 | 46 | 1014.4 |
| 20260503020106 | 0 | 0.0 | 0.0 | 0.00 | 0.00 | 0.00 | |||
| 20260503015957 | 70 | 338 | 6.0 | 10.0 | 0.00 | 0.00 | 0.02 | 46 | 1014.4 |
| 20260503015605 | 0 | 0.0 | 0.0 | 0.00 | 0.00 | 0.00 | |||
| 20260503015457 | 70 | 351 | 6.0 | 10.0 | 0.00 | 0.00 | 0.02 | 45 | 1014.3 |
| 20260503014957 | 70 | 326 | 4.0 | 7.0 | 0.00 | 0.00 | 0.02 | 46 | 1014.6 |
| 20260503014457 | 70 | 327 | 6.0 | 10.0 | 0.00 | 0.00 | 0.02 | 46 | 1014.6 |
| 20260503013957 | 70 | 335 | 6.0 | 12.0 | 0.00 | 0.00 | 0.02 | 46 | 1014.6 |
| 20260503013457 | 70 | 340 | 8.0 | 12.0 | 0.00 | 0.00 | 0.02 | 47 | 1014.6 |
| 20260503013103 | 0 | 0.0 | 0.0 | 0.00 | 0.00 | 0.00 | |||
| 20260503012957 | 70 | 328 | 7.0 | 10.0 | 0.00 | 0.00 | 0.02 | 47 | 1014.6 |
| 20260503012604 | 0 | 0.0 | 0.0 | 0.00 | 0.00 | 0.00 | |||
| 20260503012457 | 70 | 328 | 7.0 | 10.0 | 0.00 | 0.00 | 0.02 | 47 | 1014.7 |
| 20260503011512 | 70 | 328 | 4.0 | 6.0 | 0.00 | 0.00 | 0.02 | 47 | 1014.7 |
| 20260503011104 | 0 | 0.0 | 0.0 | 0.00 | 0.00 | 0.00 | |||
| 20260503010957 | 69 | 312 | 4.0 | 8.0 | 0.00 | 0.00 | 0.02 | 48 | 1014.7 |
| 20260503010604 | 0 | 0.0 | 0.0 | 0.00 | 0.00 | 0.00 | |||
| 20260503010457 | 69 | 308 | 4.0 | 8.0 | 0.00 | 0.00 | 0.02 | 48 | 1014.8 |
| 20260503010103 | 0 | 0.0 | 0.0 | 0.00 | 0.00 | 0.00 | |||
| 20260503005957 | 69 | 329 | 6.0 | 9.0 | 0.00 | 0.00 | 0.02 | 49 | 1014.8 |
| 20260503005604 | 0 | 0.0 | 0.0 | 0.00 | 0.00 | 0.00 | |||
| 20260503005457 | 69 | 325 | 7.0 | 15.0 | 0.00 | 0.00 | 0.02 | 48 | 1014.9 |
| 20260503005104 | 0 | 0.0 | 0.0 | 0.00 | 0.00 | 0.00 | |||
| 20260503004957 | 69 | 325 | 6.0 | 12.0 | 0.00 | 0.00 | 0.02 | 49 | 1014.9 |
| 20260503004604 | 0 | 0.0 | 0.0 | 0.00 | 0.00 | 0.00 | |||
| 20260503004457 | 69 | 316 | 6.0 | 11.0 | 0.00 | 0.00 | 0.02 | 50 | 1014.8 |
| 20260503003958 | 68 | 319 | 6.0 | 9.0 | 0.00 | 0.00 | 0.02 | 49 | 1015.0 |
| 20260503003601 | 0 | 0.0 | 0.0 | 0.00 | 0.00 | 0.00 | |||
| 20260503003457 | 68 | 315 | 8.0 | 15.0 | 0.00 | 0.00 | 0.02 | 51 | 1015.0 |
| 20260503003101 | 0 | 0.0 | 0.0 | 0.00 | 0.00 | 0.00 | |||
| 20260503002959 | 68 | 339 | 6.0 | 10.0 | 0.00 | 0.00 | 0.02 | 50 | 1014.9 |
| 20260503002601 | 0 | 0.0 | 0.0 | 0.00 | 0.00 | 0.00 | |||
| 20260503002457 | 68 | 308 | 7.0 | 10.0 | 0.00 | 0.00 | 0.02 | 52 | 1015.0 |
| 20260503002101 | 0 | 0.0 | 0.0 | 0.00 | 0.00 | 0.00 | |||
| 20260503001957 | 69 | 319 | 6.0 | 11.0 | 0.00 | 0.00 | 0.02 | 52 | 1015.1 |
| 20260503001612 | 0 | 0.0 | 0.0 | 0.00 | 0.00 | 0.00 | |||
| 20260503001457 | 69 | 336 | 8.0 | 12.0 | 0.00 | 0.00 | 0.02 | 50 | 1014.9 |
| 20260503001101 | 0 | 0.0 | 0.0 | 0.00 | 0.00 | 0.00 | |||
| 20260503000957 | 69 | 314 | 6.0 | 12.0 | 0.00 | 0.00 | 0.02 | 50 | 1015.0 |
| 20260503000602 | 0 | 0.0 | 0.0 | 0.00 | 0.00 | 0.00 | |||
| 20260503000457 | 69 | 300 | 5.0 | 9.0 | 0.00 | 0.00 | 0.02 | 50 | 1015.0 |
| 20260502235959 | 69 | 332 | 7.0 | 14.0 | 0.00 | 0.00 | 0.02 | 48 | 1015.0 |
| 20260502235602 | 0 | 0.0 | 0.0 | 0.00 | 0.00 | 0.00 | |||
| 20260502235457 | 69 | 331 | 8.0 | 11.0 | 0.00 | 0.00 | 0.02 | 48 | 1015.0 |
| 20260502235102 | 0 | 0.0 | 0.0 | 0.00 | 0.00 | 0.00 | |||
| 20260502234957 | 69 | 310 | 6.0 | 9.0 | 0.00 | 0.00 | 0.02 | 50 | 1015.1 |
| 20260502234602 | 0 | 0.0 | 0.0 | 0.00 | 0.00 | 0.00 | |||
| 20260502234457 | 69 | 316 | 8.0 | 13.0 | 0.00 | 0.00 | 0.02 | 51 | 1015.1 |
| 20260502234059 | 0 | 0.0 | 0.0 | 0.00 | 0.00 | 0.00 | |||
| 20260502233958 | 69 | 311 | 9.0 | 13.0 | 0.00 | 0.00 | 0.02 | 51 | 1015.2 |
| 20260502233559 | 0 | 0.0 | 0.0 | 0.00 | 0.00 | 0.00 | |||
| 20260502233459 | 69 | 311 | 5.0 | 11.0 | 0.00 | 0.00 | 0.02 | 50 | 1015.2 |
| 20260502233100 | 0 | 0.0 | 0.0 | 0.00 | 0.00 | 0.00 | |||
| 20260502232957 | 68 | 310 | 4.0 | 6.0 | 0.00 | 0.00 | 0.02 | 52 | 1015.3 |
| 20260502232559 | 0 | 0.0 | 0.0 | 0.00 | 0.00 | 0.00 | |||
| 20260502232458 | 68 | 310 | 5.0 | 8.0 | 0.00 | 0.00 | 0.02 | 51 | 1015.3 |
| 20260502231957 | 68 | 293 | 5.0 | 8.0 | 0.00 | 0.00 | 0.02 | 54 | 1015.4 |
| 20260502231600 | 0 | 0.0 | 0.0 | 0.00 | 0.00 | 0.00 | |||
| 20260502231457 | 67 | 297 | 5.0 | 12.0 | 0.00 | 0.00 | 0.02 | 55 | 1015.4 |
| 20260502231100 | 0 | 0.0 | 0.0 | 0.00 | 0.00 | 0.00 | |||
| 20260502230957 | 67 | 305 | 6.0 | 9.0 | 0.00 | 0.00 | 0.02 | 56 | 1015.5 |
| 20260502230559 | 0 | 0.0 | 0.0 | 0.00 | 0.00 | 0.00 | |||
| 20260502230458 | 67 | 316 | 5.0 | 8.0 | 0.00 | 0.00 | 0.02 | 56 | 1015.5 |
| 20260502230100 | 0 | 0.0 | 0.0 | 0.00 | 0.00 | 0.00 | |||
| 20260502225957 | 67 | 328 | 6.0 | 11.0 | 0.00 | 0.00 | 0.02 | 57 | 1015.6 |
| 20260502225600 | 0 | 0.0 | 0.0 | 0.00 | 0.00 | 0.00 | |||
| 20260502225458 | 67 | 310 | 7.0 | 12.0 | 0.00 | 0.00 | 0.02 | 57 | 1015.7 |
| 20260502225100 | 0 | 0.0 | 0.0 | 0.00 | 0.00 | 0.00 | |||
| 20260502224957 | 67 | 303 | 6.0 | 10.0 | 0.00 | 0.00 | 0.02 | 56 | 1015.7 |
| 20260502224557 | 0 | 0.0 | 0.0 | 0.00 | 0.00 | 0.00 | |||
| 20260502224457 | 67 | 294 | 6.0 | 10.0 | 0.00 | 0.00 | 0.02 | 56 | 1015.8 |
| 20260502223957 | 67 | 309 | 6.0 | 9.0 | 0.00 | 0.00 | 0.02 | 57 | 1015.9 |
| 20260502223457 | 66 | 311 | 6.0 | 9.0 | 0.00 | 0.00 | 0.02 | 58 | 1015.8 |
| 20260502223055 | 0 | 0.0 | 0.0 | 0.00 | 0.00 | 0.00 | |||
| 20260502222957 | 66 | 298 | 7.0 | 11.0 | 0.00 | 0.00 | 0.02 | 58 | 1015.9 |
| 20260502222457 | 66 | 302 | 5.0 | 9.0 | 0.00 | 0.00 | 0.02 | 60 | 1016.0 |
| 20260502222056 | 0 | 0.0 | 0.0 | 0.00 | 0.00 | 0.00 | |||
| 20260502221958 | 66 | 300 | 6.0 | 9.0 | 0.00 | 0.00 | 0.02 | 60 | 1016.1 |
| 20260502221555 | 0 | 0.0 | 0.0 | 0.00 | 0.00 | 0.00 | |||
| 20260502221457 | 65 | 294 | 6.0 | 9.0 | 0.00 | 0.00 | 0.02 | 61 | 1016.1 |
| 20260502221055 | 0 | 0.0 | 0.0 | 0.00 | 0.00 | 0.00 | |||
| 20260502220957 | 66 | 314 | 7.0 | 9.0 | 0.00 | 0.00 | 0.02 | 62 | 1016.2 |
| 20260502220555 | 0 | 0.0 | 0.0 | 0.00 | 0.00 | 0.00 | |||
| 20260502220458 | 66 | 300 | 5.0 | 8.0 | 0.00 | 0.00 | 0.02 | 61 | 1016.4 |
| 20260502220055 | 0 | 0.0 | 0.0 | 0.00 | 0.00 | 0.00 | |||
| 20260502215957 | 65 | 292 | 5.0 | 7.0 | 0.00 | 0.00 | 0.02 | 60 | 1016.4 |
| 20260502215556 | 0 | 0.0 | 0.0 | 0.00 | 0.00 | 0.00 | |||
| 20260502215457 | 65 | 303 | 6.0 | 9.0 | 0.00 | 0.00 | 0.02 | 61 | 1016.4 |
| 20260502214957 | 66 | 292 | 6.0 | 9.0 | 0.00 | 0.00 | 0.02 | 61 | 1016.4 |
| 20260502214555 | 0 | 0.0 | 0.0 | 0.00 | 0.00 | 0.00 | |||
| 20260502214457 | 65 | 302 | 4.0 | 6.0 | 0.00 | 0.00 | 0.02 | 60 | 1016.5 |
| 20260502214053 | 0 | 0.0 | 0.0 | 0.00 | 0.00 | 0.00 | |||
| 20260502213957 | 65 | 299 | 7.0 | 10.0 | 0.00 | 0.00 | 0.02 | 60 | 1016.5 |
| 20260502213457 | 65 | 302 | 5.0 | 9.0 | 0.00 | 0.00 | 0.02 | 61 | 1016.7 |
| 20260502212957 | 64 | 305 | 6.0 | 10.0 | 0.00 | 0.00 | 0.02 | 61 | 1016.7 |
| 20260502212457 | 64 | 308 | 6.0 | 9.0 | 0.00 | 0.00 | 0.02 | 62 | 1016.7 |
| 20260502211959 | 64 | 300 | 6.0 | 9.0 | 0.00 | 0.00 | 0.02 | 63 | 1016.7 |
| 20260502211549 | 0 | 0.0 | 0.0 | 0.00 | 0.00 | 0.00 | |||
| 20260502211457 | 64 | 306 | 6.0 | 11.0 | 0.00 | 0.00 | 0.02 | 64 | 1016.8 |
| 20260502211050 | 0 | 0.0 | 0.0 | 0.00 | 0.00 | 0.00 | |||
| 20260502210957 | 63 | 319 | 5.0 | 9.0 | 0.00 | 0.00 | 0.02 | 65 | 1016.8 |
| 20260502210457 | 63 | 312 | 8.0 | 10.0 | 0.00 | 0.00 | 0.02 | 66 | 1016.8 |
| 20260502210049 | 0 | 0.0 | 0.0 | 0.00 | 0.00 | 0.00 | |||
| 20260502205958 | 63 | 304 | 6.0 | 9.0 | 0.00 | 0.00 | 0.02 | 65 | 1016.9 |
| 20260502205550 | 0 | 0.0 | 0.0 | 0.00 | 0.00 | 0.00 | |||
| 20260502205458 | 62 | 311 | 5.0 | 8.0 | 0.00 | 0.00 | 0.02 | 67 | 1017.0 |
| 20260502205050 | 0 | 0.0 | 0.0 | 0.00 | 0.00 | 0.00 |